www.pogodaiklimat.ru

Погода и климат >> Архив погоды >> Австрия >> Лунц


ПОГОДА в Лунце

  • Прогноз погоды в Лунце
  • Монитор погоды в Лунце

АРХИВ ПОГОДЫ в Лунце

Время (UTC), дата Ветер
(напр.,м/с)
 
Видим.   Явления Облачность Т
(С)
Тd
(С)
f
(%)
Тe
(С)
Тes
(С)
Комфортность P
(гПа)
Po
(гПа)
Тmin
(С)
Tmax
(С)
R
(мм)
R24
(мм)
S
(см)
13 18.08 З 1 н/о н/о +30.9 +12.1 32 +32 +32 жарко 1009.3 943.0
14 18.08 З 1 н/о н/о +31.3 +14.8 37 +33 +33 жарко 1008.7 942.6
15 18.08 З 2 н/о н/о +31.0 +14.1 36 +33 +33 душно 1008.7 942.5
16 18.08 З 1 н/о н/о +28.7 +15.7 45 +32 +32 душно 1009.1 942.4
17 18.08 В 1 н/о н/о +24.5 +18.8 71 +29 +29 душно 1009.8 942.3 0.0
18 18.08 В 1 20 км ясно +19.6 +17.1 85 +23 +23 комфорт 1011.0 942.3 +14.6 +31.8 0.0
19 18.08 штиль 0 н/о н/о +17.7 +16.1 90 +18 +18 1011.7 942.5
20 18.08 штиль 0 н/о н/о +16.6 +15.5 93 +16 +16 1012.6 943.0
21 18.08 ЮВ 1 н/о н/о +14.9 +14.0 94 +15 +15 1012.9 942.9
22 18.08 В 1 н/о н/о +14.0 +13.5 97 +14 +14 1013.3 943.0
23 18.08 В 1 н/о н/о +13.6 +13.2 97 +14 +14 1013.1 942.7
00 19.08 В 1 н/о н/о +12.3 +12.0 98 +12 +12 1013.3 942.6
01 19.08 штиль 0 н/о н/о +11.8 +11.5 98 +11 +11 1013.5 942.6
02 19.08 В 1 н/о н/о +11.5 +11.3 99 +11 +11 1014.2 943.2
03 19.08 штиль 0 н/о н/о +11.7 +11.5 99 +11 +11 1016.2 945.1
04 19.08 штиль 0 н/о н/о +12.5 +12.2 98 +12 +12 1017.9 946.9
05 19.08 З 1 15 км 9/0
[Ac As]
+19.8 +14.2 70 +23 +23 комфорт 1017.1 947.9
06 19.08 СЗ 1 20 км 9/0 2000 м
[Ac As]
+19.8 +13.0 65 +23 +24 комфорт 1017.4 948.2 +11.1 +20.2
07 19.08 СЗ 1 н/о н/о +20.9 +12.9 60 +24 +24 комфорт 1017.0 948.0
08 19.08 штиль 0 н/о н/о +22.1 +12.3 54 +25 +25 комфорт 1016.8 948.1
09 19.08 З 1 20 км 1/0
[Ac trans]
+23.7 +12.4 49 +26 +38 жарко 1016.5 948.2
10 19.08 штиль 0 н/о н/о +25.0 +13.9 50 +27 +27 жарко 1016.2 948.2
11 19.08 штиль 0 н/о н/о +25.0 +12.4 45 +27 +27 жарко 1015.9 947.9
12 19.08 З 1 н/о в посл. час осадки н/о +26.3 +12.7 43 +28 +28 жарко 1015.5 947.8 0.1
13 19.08 З 2 н/о н/о +26.4 +14.7 49 +29 +29 жарко 1015.3 947.7
14 19.08 В 1 н/о н/о +26.0 +15.0 51 +29 +29 душно 1015.4 947.7
15 19.08 штиль 0 20 км 8/0
[Ac As]
+24.1 +15.8 60 +27 +27 жарко 1015.9 947.8
16 19.08 ЮЗ 1 н/о н/о +22.2 +15.7 67 +26 +26 душно 1017.1 948.5 0.0
17 19.08 З 2 н/о н/о +21.5 +16.1 71 +25 +25 комфорт 1017.7 948.9 0.0
18 19.08 В 1 20 км 5/0 2000 м
[Ac trans]
+19.4 +17.2 87 +23 +23 комфорт 1018.5 949.2 +18.3 +26.9 0.1
19 19.08 штиль 0 н/о в посл. час осадки н/о +18.2 +17.1 93 +19 +19 1018.9 949.3 0.0
20 19.08 В 1 н/о н/о +18.3 +17.1 93 +20 +20 1019.5 949.9 0.0
21 19.08 ЮВ 1 н/о в посл. час осадки н/о +17.6 +16.6 94 +19 +19 1019.8 950.0 0.0
22 19.08 ЮВ 1 н/о н/о +17.0 +16.7 98 +18 +18 1020.1 950.1 6
23 19.08 В 1 н/о в посл. час осадки н/о +16.5 +16.2 98 +17 +17 1020.0 949.9 0.5
00 20.08 В 1 н/о в посл. час осадки {ливн. осадки} н/о +16.1 +15.9 99 +17 +17 1019.8 949.6 6
01 20.08 В 1 н/о н/о +16.6 +16.3 98 +17 +17 1019.9 949.8
02 20.08 штиль 0 н/о н/о +16.4 +16.1 98 +16 +16 1020.0 949.9
03 20.08 штиль 0 н/о н/о +16.3 +16.0 98 +16 +16 1020.2 950.0
04 20.08 В 1 н/о н/о +16.1 +15.8 98 +17 +17 1020.4 950.2
05 20.08 В 1 н/о н/о +16.2 +16.0 99 +17 +17 1020.9 950.7
06 20.08 ЮВ 1 700 м ?/? +16.7 +16.4 98 +18 +18 1020.8 950.7 +15.8 +19.8 6
07 20.08 штиль 0 н/о н/о +17.5 +16.5 94 +17 +17 1020.6 950.7
08 20.08 З 2 н/о н/о +19.2 +16.8 86 +21 +21 комфорт 1019.6 950.2 0.0
09 20.08 Ю 1 20 км 6/0 2000 м
[]
+20.6 +17.2 81 +25 +35 комфорт 1019.2 950.1 0.0
10 20.08 С 1 н/о н/о +22.4 +16.6 70 +27 +27 душно 1018.4 949.8
11 20.08 З 1 н/о н/о +23.4 +17.4 69 +29 +29 душно 1017.4 949.1
12 20.08 штиль 0 н/о н/о +24.3 +18.1 68 +29 +29 душно 1016.6 948.6 0.0
13 20.08 СЗ 1 н/о н/о +25.6 +18.9 66 +31 +31 очень
душно
1015.9 948.2
14 20.08 З 1 н/о н/о +24.9 +19.5 72 +30 +30 душно 1015.9 948.1
15 20.08 З 1 20 км 6/0
[Ac trans]
+24.7 +19.9 75 +30 +34 очень
душно
1015.8 948.0
16 20.08 СЗ 1 н/о н/о +23.9 +19.9 78 +29 +29 душно 1015.6 947.6
17 20.08 штиль 0 н/о н/о +22.4 +20.7 90 +29 +29 очень
душно
1015.8 947.5
18 20.08 В 1 20 км 8/0 2000 м
[Ac trans]
+20.8 +19.5 92 +26 +26 душно 1016.4 947.6 +16.6 +25.8 0.0
19 20.08 В 1 н/о н/о +18.8 +18.3 97 +21 +21 комфорт 1018.0 948.6
20 20.08 В 1 н/о н/о +17.6 +17.2 98 +19 +19 1018.3 948.6
21 20.08 штиль 0 н/о н/о +18.0 +17.7 98 +18 +18 1019.4 949.7
22 20.08 штиль 0 н/о н/о +19.3 +16.6 84 +21 +21 комфорт 1020.3 950.8
23 20.08 З 3 н/о н/о +18.3 +15.1 82 +19 +19 1021.7 951.9 0.0
00 21.08 СЗ 1 н/о осадки н/о +17.1 +14.7 86 +18 +18 1022.8 952.6 0.1
01 21.08 штиль 0 н/о в посл. час осадки н/о +15.5 +13.2 86 +15 +15 1025.0 954.2 0.4
02 21.08 штиль 0 н/о осадки н/о +14.5 +13.1 91 +14 +14 1026.3 955.2 0.4
03 21.08 С 1 н/о в посл. час осадки {ливн. осадки} н/о +14.1 +12.7 91 +14 +14 1026.7 955.5 1
04 21.08 С 1 н/о осадки н/о +13.8 +12.9 94 +14 +14 1027.2 955.9 0.7
05 21.08 З 1 10 км слаб. дождь 10/10 1500 м
[Frnb]
+13.4 +12.2 92 +14 +14 1028.2 956.7 0.1
06 21.08 штиль 0 н/о ливневой дождь н/о +13.2 +12.7 97 +13 +13 1028.6 957.0 +12.9 +20.8 2
07 21.08 штиль 0 н/о осадки н/о +13.0 +12.6 97 +12 +12 1029.0 957.4 0.6
08 21.08 З 2 н/о ливневой дождь н/о +13.6 +12.4 92 +13 +13 1028.9 957.4 0.4
09 21.08 СЗ 1 15 км в посл. час дождь 10/0 1500 м
[Ac As]
+13.5 +12.1 91 +14 +18 1029.1 957.6 1
10 21.08 ЮВ 1 н/о н/о +13.7 +12.0 89 +14 +14 1029.1 957.6
11 21.08 штиль 0 н/о н/о +14.1 +12.1 88 +14 +14 1028.9 957.5
12 21.08 В 1 15 км {дождь} 9/0
[Ac As]
+15.5 +11.6 78 +16 +22 1028.1 957.1 1
13 21.08 штиль 0 н/о в посл. час осадки н/о +15.5 +12.6 83 +15 +15 1028.0 957.0 0.5
14 21.08 ЮВ 1 н/о н/о +15.7 +12.5 81 +16 +16 1027.6 956.7
15 21.08 В 1 20 км {дождь} 9/0 2000 м
[Ac As]
+14.9 +13.8 93 +15 +17 1027.7 956.6 0.6
16 21.08 штиль 0 н/о в посл. час осадки н/о +14.7 +13.7 94 +14 +14 1028.3 957.1 0.1
17 21.08 штиль 0 н/о н/о +14.5 +13.4 93 +14 +14 1028.2 957.0 0.0
18 21.08 штиль 0 20 км {ливн. осадки} 8/0 2000 м
[Ac As]
+14.1 +13.3 95 +14 +14 1028.0 956.7 +13.0 +15.8 2
19 21.08 штиль 0 н/о н/о +13.1 +12.6 97 +13 +13 1028.2 956.6
20 21.08 В 1 н/о н/о +12.6 +12.3 98 +12 +12 1028.8 957.1
21 21.08 В 1 н/о н/о +11.8 +11.6 99 +12 +12 1029.1 957.1
22 21.08 штиль 0 н/о н/о +10.7 +10.5 99 +10 +10 1029.3 957.0
23 21.08 штиль 0 н/о н/о +10.3 +10.2 99 +9 +9 1028.9 956.6
00 22.08 штиль 0 н/о н/о +10.2 +10.1 99 +9 +9 1028.5 956.2
01 22.08 В 1 н/о н/о +10.8 +10.7 99 +10 +10 1027.7 955.6
02 22.08 штиль 0 н/о н/о +10.7 +10.6 99 +10 +10 1027.4 955.3
03 22.08 В 1 н/о н/о +10.7 +10.6 99 +10 +10 1026.9 954.8
04 22.08 В 1 н/о н/о +10.5 +10.4 99 +10 +10 1026.5 954.4
05 22.08 В 1 20 км 8/0
[Ac trans]
+10.7 +10.6 99 +10 +10 1027.2 955.1
06 22.08 ЮВ 1 20 км 4/0 2000 м
[Ac trans]
+11.5 +11.3 99 +11 +13 1026.5 954.6 +10.1 +14.2
07 22.08 СВ 1 н/о н/о +13.8 +11.8 88 +14 +14 1025.2 954.0
08 22.08 ЮВ 1 н/о н/о +16.2 +12.0 76 +17 +17 1024.7 954.1
09 22.08 В 1 20 км 5/0
[Ac trans Ci]
+18.0 +12.5 70 +19 +29 1023.8 953.7
10 22.08 СЗ 1 н/о н/о +19.9 +14.5 71 +23 +23 комфорт 1023.2 953.6
11 22.08 СЗ 1 н/о н/о +19.6 +14.1 71 +22 +22 комфорт 1023.3 953.6
12 22.08 С 2 20 км 6/0 1500 м
[Ac trans]
+18.0 +13.1 73 +19 +27 1024.2 954.1 0.0
13 22.08 З 1 н/о н/о +18.7 +13.8 73 +21 +21 комфорт 1023.7 953.8
14 22.08 З 1 н/о н/о +18.0 +13.7 76 +19 +19 1024.1 954.0
15 22.08 ЮЗ 1 20 км 8/0
[Ac trans]
+18.5 +14.3 77 +20 +23 1023.6 953.7
16 22.08 СЗ 1 н/о н/о +18.8 +14.0 74 +21 +21 комфорт 1023.5 953.6
17 22.08 штиль 0 н/о н/о +17.9 +15.3 85 +18 +18 1023.8 953.7
18 22.08 штиль 0 15 км 10/0
[As trans]
+17.1 +15.6 91 +17 +17 1024.5 954.2 +11.4 +20.0 0.0
19 22.08 штиль 0 н/о н/о +16.6 +15.1 91 +16 +16 1025.4 954.9
20 22.08 штиль 0 н/о н/о +16.2 +15.4 95 +16 +16 1025.7 955.1
21 22.08 В 1 н/о н/о +16.1 +15.4 96 +17 +17 1025.7 955.1
22 22.08 штиль 0 н/о н/о +15.8 +15.2 96 +16 +16 1025.9 955.2
23 22.08 штиль 0 н/о н/о +15.8 +15.2 96 +16 +16 1025.9 955.2
00 23.08 ЮВ 1 н/о н/о +15.6 +15.2 97 +16 +16 1025.6 954.9
01 23.08 штиль 0 н/о н/о +15.5 +15.0 97 +15 +15 1025.4 954.7
02 23.08 В 1 н/о н/о +14.7 +14.3 97 +15 +15 1025.7 954.7
03 23.08 штиль 0 н/о н/о +14.4 +14.2 99 +14 +14 1025.7 954.7
04 23.08 штиль 0 н/о н/о +14.7 +14.5 99 +14 +14 1025.5 954.6
05 23.08 штиль 0 600 м ?/? +15.0 +14.6 97 +15 +15 1026.0 955.1
06 23.08 штиль 0 20 км 8/0 2000 м
[Ac trans]
+15.5 +14.7 95 +15 +17 1026.0 955.2 +14.0 +17.2
07 23.08 штиль 0 н/о н/о +16.3 +14.9 91 +16 +16 1025.7 955.1
08 23.08 штиль 0 н/о н/о +18.0 +15.2 84 +18 +18 1025.3 955.2
09 23.08 З 1 15 км 8/0
[Ac trans]
+19.7 +15.7 78 +23 +30 комфорт 1024.4 954.7
10 23.08 З 2 н/о н/о +21.4 +16.2 72 +25 +25 комфорт 1023.7 954.5 0.0
11 23.08 З 2 н/о н/о +21.9 +15.9 69 +26 +26 душно 1023.2 954.1
12 23.08 З 1 н/о н/о +22.5 +16.7 70 +27 +27 душно 1022.6 953.7 0.0
13 23.08 Ю 1 н/о н/о +23.0 +17.1 69 +28 +28 душно 1022.2 953.5
14 23.08 СЗ 2 н/о н/о +23.3 +15.8 63 +28 +28 душно 1021.7 953.0
15 23.08 С 1 20 км 5/0
[Ac trans]
+23.3 +15.6 62 +28 +32 душно 1021.3 952.6
16 23.08 штиль 0 н/о н/о +23.8 +16.3 63 +27 +27 жарко 1020.9 952.4
17 23.08 З 1 н/о н/о +21.5 +18.0 80 +26 +26 душно 1021.3 952.3
18 23.08 В 1 20 км 3/0 2000 м
[Ac trans]
+18.0 +17.2 95 +19 +19 1022.6 952.7 +15.3 +24.1 0.0
19 23.08 штиль 0 н/о н/о +16.4 +15.8 96 +16 +16 1023.4 953.0
20 23.08 В 1 н/о н/о +15.8 +15.4 97 +16 +16 1023.6 953.1
21 23.08 В 1 н/о н/о +14.7 +14.5 99 +15 +15 1023.8 953.0
22 23.08 В 1 н/о н/о +14.1 +13.8 98 +14 +14 1023.7 952.7
23 23.08 штиль 0 н/о н/о +13.3 +13.0 98 +13 +13 1023.6 952.4
00 24.08 В 1 н/о н/о +13.0 +12.8 99 +13 +13 1023.3 952.1
01 24.08 штиль 0 н/о н/о +13.2 +13.1 99 +13 +13 1023.2 952.0
02 24.08 В 1 н/о н/о +13.5 +13.4 99 +14 +14 1022.7 951.6
04 24.08 ЮВ 1 н/о н/о +12.7 +12.7 100 +13 +13 1022.6 951.3
05 24.08 штиль 0 600 м ?/? +12.2 +12.1 99 +12 +12 1022.6 951.2
06 24.08 В 1 5000 м дымка {туман} 5/0 2000 м
[Ac trans]
+13.5 +13.5 100 +14 +15 1022.2 951.2 +12.1 +18.9
07 24.08 штиль 0 н/о н/о +16.9 +15.8 93 +17 +17 1021.3 951.2
08 24.08 штиль 0 н/о н/о +20.5 +16.6 78 +23 +23 комфорт 1020.2 951.0
09 24.08 З 1 н/о н/о +24.0 +18.0 69 +28 +28 душно 1019.2 950.9
10 24.08 З 1 н/о н/о +25.7 +16.4 56 +29 +29 душно 1018.4 950.5
11 24.08 З 1 н/о н/о +26.0 +18.1 62 +31 +31 очень
душно
1018.1 950.3
12 24.08 З 1 н/о н/о +25.2 +18.2 65 +30 +30 душно 1018.3 950.3
13 24.08 В 1 н/о н/о +24.6 +18.0 67 +29 +29 душно 1018.6 950.5
14 24.08 В 1 н/о н/о +24.3 +16.5 62 +28 +28 душно 1018.5 950.3 0.0
15 24.08 В 1 20 км 8/0 2000 м
[As trans]
+22.1 +16.1 69 +26 +29 душно 1019.2 950.4 0.0
16 24.08 В 2 н/о в посл. час осадки н/о +20.8 +13.9 65 +24 +24 комфорт 1019.5 950.4 0.0
17 24.08 В 1 н/о осадки н/о +18.7 +14.9 79 +21 +21 комфорт 1019.5 949.9 0.1
18 24.08 штиль 0 20 км {дождь} 4/0 2000 м
[Ac trans]
+17.1 +15.2 89 +17 +17 1020.1 950.1 +13.2 +26.6 0.1
19 24.08 В 1 н/о н/о +14.9 +14.2 96 +15 +15 1021.3 950.7
20 24.08 В 1 н/о н/о +14.9 +14.3 96 +15 +15 1021.6 951.0
21 24.08 В 1 н/о н/о +14.8 +14.4 97 +15 +15 1020.9 950.3 0.0
22 24.08 ЮВ 1 н/о н/о +14.0 +13.7 98 +14 +14 1020.9 950.1
23 24.08 В 1 н/о н/о +13.8 +13.5 98 +14 +14 1020.8 949.9
00 25.08 ЮВ 1 н/о н/о +13.6 +13.3 98 +14 +14 1020.6 949.7 0.0
01 25.08 штиль 0 н/о н/о +12.9 +12.7 99 +12 +12 1020.8 949.7
02 25.08 штиль 0 н/о н/о +12.5 +12.4 99 +12 +12 1021.0 949.8
03 25.08 В 1 н/о н/о +12.6 +12.5 99 +12 +12 1021.0 949.8
04 25.08 штиль 0 н/о н/о +12.7 +12.6 99 +12 +12 1021.2 950.0
05 25.08 В 1 20 км 3/0
[Ac trans]
+13.2 +13.0 99 +13 +14 1020.9 949.9
06 25.08 штиль 0 20 км 5/0 2000 м
[Ac trans]
+14.5 +14.0 97 +14 +16 1020.5 949.8 +12.4 +17.5 0.0
07 25.08 штиль 0 н/о н/о +16.0 +14.2 89 +16 +16 1020.3 950.0
08 25.08 штиль 0 н/о н/о +18.0 +15.5 85 +18 +18 1020.0 950.2
09 25.08 ЮЗ 1 20 км 6/3 2000 м
[Cu med, cong Ac trans]
+19.2 +15.4 79 +22 +28 комфорт 1019.7 950.2
10 25.08 З 2 н/о н/о +23.2 +15.7 63 +28 +28 душно 1018.5 950.0
11 25.08 З 1 н/о н/о +24.6 +15.7 58 +28 +28 душно 1017.8 949.7 0.0
12 25.08 СЗ 1 н/о н/о +25.6 +16.3 56 +29 +29 душно 1017.6 949.7 0.0
13 25.08 З 1 н/о н/о +26.0 +15.7 53 +29 +29 душно 1017.0 949.2

 

Местоположение метеостанции Лунц (Австрия): широта 47.85 долгота 15.07 высота над уровнем моря 615 м.

В архиве по умолчанию представлена погода в Лунце за последнюю неделю. Архивные данные за месяц целиком и за предыдущие месяцы, начиная с января 2011 года, Вы можете получить, выбрав интересующий диапазон дат из раскрывающегося списка и нажав кнопку "Ввод!".


*Определитесь, кто Вы:
робот инопланетянин человек

Внимание! Время в таблицах - всемирное. Для получения местного времени необходимо прибавить поправку, которая равна 1 ч.

Смотрите также архив погоды в соседних городах и на ближайших метеорологических станциях:

Погода в Санкт-Себастьяне (Австрия) (18 км)
Погода в Вайдхофен-ан-дер-Ибсе (Австрия) (22 км)
Погода в Вайдхофен-ан-дер-Ибсе (Австрия) (25 км)
Погода в Амштеттене (Австрия) (31 км)
Погода в Афленц-Курорте (Австрия) (36 км)
Погода в Пребихле (Австрия) (38 км)
Погода в Лилиенфельде (Австрия) (43 км)
Погода в Капфенберг аэропорту (Австрия) (47 км)
Погода в Капфенберге (Австрия) (48 км)
Погода в Брукк-ан-дер-Муре (Австрия) (50 км)

Пояснения к столбцам:

Ветер - указаны скорость ветра в м/с - средняя за 10 мин, порывы в срок и между сроками (в фигурных скобках) и направление, откуда дует ветер: С - северный, СВ - северо-восточный, В - восточный, ЮВ - юго-восточный, Ю - южный, ЮЗ - юго-западный, З - западный, СЗ - северо-западный.
Видимость - горизонтальная дальность видимости в метрах или километрах. При видимости от 1 до 10 км при отсутствии осадков обычно наблюдается дымка, при ухудшении видимости до 1 км и менее - туман. В сухую погоду видимость может ухудшаться дымом, пылью или мглою.
Явления - указаны атмосферные явления, наблюдавшиеся в срок или в последний час перед сроком; фигурными скобками обозначены явления, наблюдавшиеся между сроками (за 1-3 часа до срока); квадратными скобками обозначены град или гололедные отложения с указанием их диаметра в мм.
Облачность - указаны через наклонную черту общая и нижняя облачность в баллах и высота нижней границы облаков в метрах; квадратными скобками обозначены формы облаков: Ci - перистые, Cs - перисто-слоистые, Cc - перисто-кучевые, Ac - высококучевые, As - высокослоистые, Sc - слоисто-кучевые, Ns - слоисто-дождевые, Cu - кучевые, Cb - кучево-дождевые. Подробнее классификацию облаков см. в Атласе облаков (PDF).
T - Температура воздуха - температура, измеренная на высоте 2 м над землей.
Td - Температура точки росы - температура, при понижении до которой содержащийся в воздухе водяной пар достигнет насыщения.
f - Относительная влажность воздуха - влажноcть воздуха, измеренная на высоте 2 м над землей.
Te - Эффективная температура - температура, которую ощущает одетый по сезону человек в тени. Характеристика душности погоды. При расчете учитывается влияние влажности воздуха и скорости ветра на теплоощущения человека.
Tes - Эффективная температура на солнце - температура, которую ощущает человек, с поправкой на солнечный нагрев. Характеристика знойности погоды. Зависит от высоты солнца над горизонтом, облачности и скорости ветра. Ночью, в пасмурную погоду, а также при ветре 12 м/с и более поправка равна нулю.
P - Атмосферное давление - приведенное к уровню моря атмосферное давление.
Po - Атмосферное давление - измеренное на уровне метеостанции атмосферное давление.
Tmin - Минимальная температура - минимум температуры воздуха на высоте 2 м над землей.
Tmax - Максимальная температура - максимум температуры воздуха на высоте 2 м над землей.
R - Количество осадков - Количество выпавших осадков за период времени, мм. При наведении курсора мыши на число - период времени, за который выпало указанное количество осадков.
R24 - Количество осадков - Количество выпавших осадков за 24 часа, мм.
S - Снежный покров - Высота снежного покрова, см. При наведении курсора мыши на число - состояние снежного покрова и степень покрытия местности в баллах.